Location: Unspecified
(0.0000°N, 0.0000°E)
Time: 19:45:17
(UTC+00:00)

Altair - Pass Details

Date: 03 October 2023
Orbit: 1501 x 1682 km, 47.2° (Epoch: 06 October)

Event Time Altitude Azimuth Distance (km) Brightness Sun altitude
Rises 22:58:20 0° 234° (SW) 4,640 - -76.7°
Reaches altitude 10° 23:01:30 10° 240° (WSW) 3,668 - -77.4°
Maximum altitude 23:10:11 46° 310° (NW) 1,985 - -79.5°
Drops below altitude 10° 23:19:09 10° 21° (NNE) 3,772 - -81.5°
Sets 23:22:29 0° 27° (NNE) 4,782 - -82.2°
